Athens, GA

11:16 AM EST on January 23, 2018 (GMT -0500)
Athens / Epps

Weather History for KAHN - February, 2014

Change the Weather History Date:

Thursday, February 13, 2014

  Actual Average Record
Temperature  
Mean Temperature 38 °F 47 °F  
Max Temperature 48 °F 58 °F 74 °F (1938)
Min Temperature 28 °F 36 °F 14 °F (1955)
Degree Days  
Heating Degree Days 27 18  
Month to date heating degree days 279 251  
Since 1 July heating degree days 2243 2008  
Moisture  
Dew Point 29 °F    
Average Humidity 79    
Maximum Humidity 100    
Minimum Humidity 58    
Precipitation  
Precipitation 0.05 in 0.16 in 2.39 in (1984)
Month to date precipitation 2.46 2.03  
Year to date precipitation 7.14 6.08  
Snow  
Snow 1.00 in 0.00 in 1.00 in (2014)
Month to date snowfall 1.0 0.3  
Since 1 July snowfall 2.8 1.8  
Snow Depth 0.00 in    
Sea Level Pressure  
Sea Level Pressure 29.74 in    
Wind  
Wind Speed 8 mph (WNW)    
Max Wind Speed 20 mph    
Max Gust Speed 28 mph    
Visibility 5 miles    
Events Snow    
T = Trace of Precipitation, MM = Missing Value Source: NWS Daily Summary

Daily Weather History Graph

Daily Weather History Graph

Search for Another Location

Airport or City:

Trip Planner

Search our weather history database for the weather conditions in past years. The results will help you decide how hot, cold, wet, or windy it might be!

Date:

Astronomy

Feb. 13, 2014 Rise Set
Actual Time 7:19 AM EST 6:15 PM EST
Civil Twilight 6:54 AM EST 6:41 PM EST
Nautical Twilight 6:24 AM EST 7:10 PM EST
Astronomical Twilight 5:55 AM EST 7:39 PM EST
Moon 5:22 PM EST (2/13) 6:11 AM EST (2/13)
Length of Visible Light 11h 46m
Length of Day
10h 55m
Waxing Gibbous, 98% of the Moon is Illuminated
Feb 13
Waxing Gibbous
Feb 14
Full
Feb 22
Last Quarter
Mar 1
New
Mar 8
First Quarter

Hourly Weather History & Observations

Time (EST) Temp. Windchill Dew Point Humidity Pressure Visibility Wind Dir Wind Speed Gust Speed Precip Events Conditions
12:30 AM 28.4 °F 20.4 °F 26.6 °F 93% 29.78 in 5.0 mi NE 8.1 mph - N/A   Overcast
12:51 AM 28.0 °F 20.0 °F 26.1 °F 92% 29.78 in 4.0 mi NE 8.1 mph - N/A   Overcast
1:43 AM 28.4 °F 24.6 °F 26.6 °F 93% 29.75 in 2.5 mi ENE 3.5 mph - N/A   Overcast
1:51 AM 28.9 °F 23.9 °F 27.0 °F 92% 29.77 in 3.0 mi ENE 4.6 mph - N/A   Overcast
2:51 AM 28.9 °F 25.2 °F 28.0 °F 96% 29.75 in 3.0 mi North 3.5 mph - N/A   Overcast
3:09 AM 30.2 °F 24.3 °F 28.4 °F 93% 29.71 in 2.5 mi NE 5.8 mph - N/A   Overcast
3:23 AM 30.2 °F - 28.4 °F 93% 29.72 in 1.5 mi Calm Calm - 0.00 in Snow Light Snow
3:31 AM 30.2 °F - 28.4 °F 93% 29.72 in 1.0 mi Calm Calm - 0.01 in Snow Light Snow
3:39 AM 30.2 °F - 28.4 °F 93% 29.71 in 0.8 mi Calm Calm - 0.01 in Snow Light Snow
3:51 AM 30.0 °F 26.5 °F 28.0 °F 92% 29.73 in 0.8 mi NW 3.5 mph - 0.02 in Snow Light Snow
4:03 AM 30.2 °F 24.3 °F 28.4 °F 93% 29.71 in 1.2 mi WNW 5.8 mph - 0.01 in Snow Light Snow
4:15 AM 30.2 °F 26.7 °F 28.4 °F 93% 29.70 in 1.2 mi WNW 3.5 mph - 0.01 in Snow Light Snow
4:33 AM 30.2 °F 25.4 °F 28.4 °F 93% 29.70 in 1.2 mi NW 4.6 mph - 0.02 in Snow Light Snow
4:40 AM 30.2 °F 25.4 °F 28.4 °F 93% 29.70 in 1.5 mi WNW 4.6 mph - 0.02 in Snow Light Snow
4:51 AM 30.0 °F 26.5 °F 28.9 °F 96% 29.73 in 1.5 mi West 3.5 mph - 0.02 in Snow Light Snow
5:36 AM 30.2 °F 26.7 °F 28.4 °F 93% 29.68 in 2.0 mi NW 3.5 mph - 0.00 in Snow Light Snow
5:51 AM 30.0 °F 25.2 °F 28.9 °F 96% 29.72 in 3.0 mi West 4.6 mph - 0.00 in   Overcast
6:27 AM 30.2 °F 26.7 °F 28.4 °F 93% 29.70 in 3.0 mi West 3.5 mph - N/A   Overcast
6:51 AM 30.9 °F 27.5 °F 28.9 °F 92% 29.73 in 3.0 mi West 3.5 mph - N/A   Overcast
7:06 AM 30.2 °F 26.7 °F 30.2 °F 100% 29.70 in 2.5 mi West 3.5 mph - 0.00 in Snow Light Snow
7:14 AM 30.2 °F 25.4 °F 30.2 °F 100% 29.70 in 1.8 mi West 4.6 mph - 0.00 in Snow Light Snow
7:51 AM 30.9 °F 26.2 °F 30.0 °F 96% 29.73 in 2.0 mi West 4.6 mph - 0.00 in   Overcast
8:06 AM 32.0 °F 28.7 °F 30.2 °F 93% 29.70 in 1.5 mi Variable 3.5 mph - 0.00 in Snow Light Snow
8:21 AM 32.0 °F 27.5 °F 30.2 °F 93% 29.69 in 2.5 mi West 4.6 mph - 0.00 in Snow Light Snow
8:36 AM 32.0 °F 27.5 °F 30.2 °F 93% 29.70 in 3.0 mi West 4.6 mph - 0.00 in   Overcast
8:51 AM 32.0 °F 26.4 °F 30.0 °F 92% 29.73 in 3.0 mi WSW 5.8 mph - 0.00 in   Overcast
9:32 AM 33.8 °F 28.6 °F 30.2 °F 87% 29.69 in 5.0 mi West 5.8 mph - N/A   Overcast
9:42 AM 33.8 °F 30.8 °F 30.2 °F 87% 29.69 in 5.0 mi Variable 3.5 mph - N/A   Overcast
9:51 AM 33.1 °F 27.7 °F 30.9 °F 92% 29.72 in 5.0 mi West 5.8 mph - N/A   Overcast
10:04 AM 33.8 °F 27.7 °F 30.2 °F 87% 29.69 in 5.0 mi West 6.9 mph - N/A   Mostly Cloudy
10:38 AM 35.6 °F 27.5 °F 32.0 °F 87% 29.70 in 7.0 mi West 11.5 mph 19.6 mph N/A   Overcast
10:51 AM 36.0 °F 29.0 °F 32.0 °F 86% 29.72 in 7.0 mi WNW 9.2 mph 18.4 mph N/A   Overcast
11:44 AM 39.2 °F 32.0 °F 33.8 °F 81% 29.70 in 9.0 mi WNW 11.5 mph - N/A   Mostly Cloudy
11:51 AM 39.9 °F 32.9 °F 33.1 °F 77% 29.72 in 9.0 mi WNW 11.5 mph - N/A   Mostly Cloudy
12:07 PM 41.0 °F 35.2 °F 33.8 °F 76% 29.71 in 9.0 mi WNW 9.2 mph 21.9 mph N/A   Scattered Clouds
12:51 PM 44.1 °F 38.6 °F 33.1 °F 65% 29.71 in 10.0 mi WNW 10.4 mph 21.9 mph 0.01 in   Partly Cloudy
1:51 PM 45.0 °F 39.3 °F 30.9 °F 58% 29.70 in 10.0 mi NW 11.5 mph 25.3 mph N/A   Mostly Cloudy
2:51 PM 45.0 °F 39.7 °F 32.0 °F 60% 29.72 in 10.0 mi WNW 10.4 mph 24.2 mph N/A   Clear
3:51 PM 45.0 °F 38.5 °F 32.0 °F 60% 29.73 in 10.0 mi West 13.8 mph 27.6 mph N/A   Clear
4:51 PM 44.1 °F 36.8 °F 32.0 °F 63% 29.77 in 10.0 mi WNW 16.1 mph 25.3 mph N/A   Clear
5:51 PM 42.1 °F 36.1 °F 30.9 °F 65% 29.80 in 10.0 mi WNW 10.4 mph 21.9 mph N/A   Clear
6:51 PM 39.9 °F 33.4 °F 30.0 °F 68% 29.83 in 10.0 mi WNW 10.4 mph - N/A   Clear
7:51 PM 37.9 °F 33.5 °F 28.9 °F 70% 29.84 in 10.0 mi WNW 5.8 mph - N/A   Clear
8:51 PM 37.9 °F 32.1 °F 27.0 °F 65% 29.85 in 10.0 mi West 8.1 mph - N/A   Clear
9:51 PM 37.9 °F 32.7 °F 24.1 °F 57% 29.85 in 10.0 mi West 6.9 mph - N/A   Clear
10:51 PM 36.0 °F 31.1 °F 24.1 °F 62% 29.87 in 10.0 mi WSW 5.8 mph - N/A   Clear
11:51 PM 36.0 °F 30.3 °F 25.0 °F 64% 29.88 in 10.0 mi West 6.9 mph - N/A   Clear